LASARSAT

Last updated on Sat Aug 30 2025 00:03:48 GMT+0000 (Coordinated Universal Time)

1 62391U 24247Q 25241.24216804 .00023912 00000+0 86271-3 0 9994 2 62391 44.9790 79.8965 0007678 169.2493 190.8556 15.28137762 38391
UTC large
Height (km)
Speed (km/s)
/
Latitude / Longitude
Inclination (degrees)
Orbital Period (minutes)
Azimuth
Elevation
Range (km)
Doppler Factor

Next 0 passes for location: London (51.5072 / 0.1276)

Sorry there are no passes over London.